Find Starlink 3386

NORAD ID: 51126 Int'l Des: 2022-005 Owner: SPXS Country: US Constellation: starlink operational
LEOCIRCULAR

リアルタイム位置

3D地球を読み込み中...

Starlink 3386について

説明を読み込み中...

次回通過

Passes for default location (London). Set your location on the main map for personalized predictions.

高度履歴

Loading altitude history...

軌道要素

1 51126U 22005Y 26126.91676625 .00000234 00000-0 32805-4 0 9994
2 51126 53.2182 37.7414 0001115 81.3265 278.7853 15.08828905237533
Epoch: May 6, 2026 • Age: 5 hours

現在のステータス

高度 544.4 km
速度 7.60 km/s
衛星直下点 48.03°N, 178.51°W
打ち上げ日 Jan 19, 2022
運用期間 4.2 years
タイプ internet

技術仕様

分類 Payload
質量 297.00 kg
乾燥質量 275.00 kg
総質量 297.00 kg
長さ 0.20 m
直径 2.80 m
スパン 9.00 m
形状 Box + pan
製造者 SPXS
バスタイプ Starlink
フェーズステータス In Orbit
所有者/国 SPXS/US

Most Searched